Find Kosmos-1156

NORAD ID: 11691 Int'l Des: 1980-012 Owner: GUKOSR Country: SU operational
LEOCIRCULAR

Aktuelle Ansicht

3D-Globus wird geladen...

About Kosmos-1156

Kosmos-1156 (NORAD 11691) is a satellite launched Feb 11, 1980 by GUKOSR of SU. It operates in LEO, CIRCULAR orbit with a mass of 60.00 kg.

Nächste Überflüge

Passes for default location (London). Set your location on the main map for personalized predictions.

Höhenverlauf

Loading altitude history...

Zweizeiliger Elementsatz

1 11691U 80012A 26195.56091505 -.00000030 00000-0 -82190-4 0 9992
2 11691 74.0229 353.5291 0048953 232.0090 193.8442 12.56899588129821
Epoch: 14. Juli 2026 • Age: 10 hours

Aktueller Status

Höhe 1424.6 km
Apogäum / Perigäum N/A
Geschwindigkeit 7.16 km/s
Subsatellitenpunkt 18.25°N, 118.07°W
Startdatum 11. Feb. 1980
Alter 46.4 years
Typ other

Technische Details

Klassifizierung Payload
Masse 60.00 kg
Trockenmasse 60.00 kg
Gesamtmasse 60.00 kg
Länge 0.80 m
Durchmesser 0.80 m
Spannweite 0.80 m
Form Poly
Hersteller NPOPM
Bus-Typ Strela-1 11F625
Phasenstatus In Orbit
Besitzer/Staat GUKOSR/SU

Most Searched